| time (UTC) | temp C | wind direction | speed KPH | gust KPH | rain 1hr cm | rain 24hr cm | rain mn cm | humidity % | barometer mb |
| 20260503232004 | 15 | 0 | 0.0 | 0.0 | 0.00 | 0.00 | 0.00 | 51 | 1016.2 |
| 20260503231525 | 15 | 0 | 0.0 | 0.0 | 0.00 | 0.00 | 0.00 | 52 | 1016.3 |
| 20260503231003 | 15 | 0 | 0.0 | 0.0 | 0.00 | 0.00 | 0.00 | 52 | 1016.3 |
| 20260503230503 | 15 | 0 | 0.0 | 0.0 | 0.00 | 0.00 | 0.00 | 52 | 1016.3 |
| 20260503230003 | 15 | 0 | 0.0 | 0.0 | 0.00 | 0.00 | 0.00 | 53 | 1016.3 |
| 20260503225503 | 15 | 202 | 0.0 | 1.6 | 0.00 | 0.00 | 0.00 | 53 | 1016.5 |
| 20260503225003 | 15 | 202 | 0.0 | 1.6 | 0.00 | 0.00 | 0.00 | 53 | 1016.4 |
| 20260503224503 | 15 | 0 | 0.0 | 0.0 | 0.00 | 0.00 | 0.00 | 53 | 1016.3 |
| 20260503224003 | 15 | 0 | 0.0 | 0.0 | 0.00 | 0.00 | 0.00 | 52 | 1016.4 |
| 20260503223503 | 15 | 0 | 0.0 | 0.0 | 0.00 | 0.00 | 0.00 | 52 | 1016.4 |
| 20260503223003 | 15 | 0 | 0.0 | 0.0 | 0.00 | 0.00 | 0.00 | 51 | 1016.3 |
| 20260503222503 | 16 | 0 | 0.0 | 0.0 | 0.00 | 0.00 | 0.00 | 51 | 1016.4 |
| 20260503222003 | 16 | 0 | 0.0 | 0.0 | 0.00 | 0.00 | 0.00 | 51 | 1016.3 |
| 20260503221524 | 16 | 0 | 0.0 | 0.0 | 0.00 | 0.00 | 0.00 | 52 | 1016.3 |
| 20260503221003 | 16 | 0 | 0.0 | 0.0 | 0.00 | 0.00 | 0.00 | 51 | 1016.2 |
| 20260503220503 | 16 | 0 | 0.0 | 0.0 | 0.00 | 0.00 | 0.00 | 51 | 1016.3 |
| 20260503220003 | 16 | 0 | 0.0 | 0.0 | 0.00 | 0.00 | 0.00 | 51 | 1016.3 |
| 20260503215503 | 16 | 0 | 0.0 | 0.0 | 0.00 | 0.00 | 0.00 | 51 | 1016.2 |
| 20260503215024 | 16 | 0 | 0.0 | 0.0 | 0.00 | 0.00 | 0.00 | 51 | 1016.1 |
| 20260503214503 | 16 | 292 | 0.0 | 1.6 | 0.00 | 0.00 | 0.00 | 51 | 1016.2 |
| 20260503214003 | 16 | 292 | 0.0 | 1.6 | 0.00 | 0.00 | 0.00 | 51 | 1016.2 |
| 20260503213503 | 16 | 22 | 0.0 | 1.6 | 0.00 | 0.00 | 0.00 | 51 | 1016.3 |
| 20260503213003 | 16 | 11 | 0.0 | 1.6 | 0.00 | 0.00 | 0.00 | 51 | 1016.1 |
| 20260503212524 | 16 | 286 | 0.0 | 1.6 | 0.00 | 0.00 | 0.00 | 51 | 1016.0 |
| 20260503212003 | 16 | 224 | 0.0 | 3.2 | 0.00 | 0.00 | 0.00 | 51 | 1016.1 |
| 20260503211524 | 16 | 211 | 1.6 | 4.8 | 0.00 | 0.00 | 0.00 | 51 | 1016.0 |
| 20260503211003 | 16 | 174 | 1.6 | 4.8 | 0.00 | 0.00 | 0.00 | 50 | 1016.0 |
| 20260503210503 | 16 | 135 | 0.0 | 1.6 | 0.00 | 0.00 | 0.00 | 50 | 1016.0 |
| 20260503210003 | 16 | 174 | 0.0 | 1.6 | 0.00 | 0.00 | 0.00 | 50 | 1015.9 |
| 20260503205503 | 16 | 193 | 1.6 | 4.8 | 0.00 | 0.00 | 0.00 | 50 | 1016.0 |
| 20260503205003 | 16 | 185 | 3.2 | 6.4 | 0.00 | 0.00 | 0.00 | 50 | 1016.0 |
| 20260503204524 | 16 | 191 | 3.2 | 6.4 | 0.00 | 0.00 | 0.00 | 50 | 1016.1 |
| 20260503204003 | 16 | 215 | 1.6 | 4.8 | 0.00 | 0.00 | 0.00 | 49 | 1015.9 |
| 20260503203503 | 16 | 204 | 1.6 | 3.2 | 0.00 | 0.00 | 0.00 | 49 | 1016.0 |
| 20260503203003 | 16 | 210 | 1.6 | 3.2 | 0.00 | 0.00 | 0.00 | 49 | 1016.0 |
| 20260503202503 | 16 | 222 | 0.0 | 3.2 | 0.00 | 0.00 | 0.00 | 49 | 1015.9 |
| 20260503202003 | 16 | 202 | 0.0 | 1.6 | 0.00 | 0.00 | 0.00 | 49 | 1016.0 |
| 20260503201524 | 16 | 224 | 1.6 | 3.2 | 0.00 | 0.00 | 0.00 | 49 | 1016.0 |
| 20260503201003 | 16 | 229 | 1.6 | 3.2 | 0.00 | 0.00 | 0.00 | 48 | 1016.0 |
| 20260503200503 | 17 | 219 | 1.6 | 3.2 | 0.00 | 0.00 | 0.00 | 48 | 1016.0 |
| 20260503200003 | 17 | 220 | 1.6 | 3.2 | 0.00 | 0.00 | 0.00 | 48 | 1016.1 |
| 20260503195503 | 17 | 210 | 1.6 | 3.2 | 0.00 | 0.00 | 0.00 | 49 | 1016.0 |
| 20260503195003 | 17 | 205 | 1.6 | 3.2 | 0.00 | 0.00 | 0.00 | 49 | 1015.9 |
| 20260503194503 | 17 | 202 | 0.0 | 3.2 | 0.00 | 0.00 | 0.00 | 48 | 1015.9 |
| 20260503194003 | 17 | 226 | 0.0 | 3.2 | 0.00 | 0.00 | 0.00 | 44 | 1015.8 |
| 20260503193503 | 17 | 224 | 0.0 | 3.2 | 0.00 | 0.00 | 0.00 | 44 | 1015.6 |
| 20260503193003 | 17 | 210 | 0.0 | 3.2 | 0.00 | 0.00 | 0.00 | 44 | 1015.7 |
| 20260503192503 | 17 | 209 | 1.6 | 3.2 | 0.00 | 0.00 | 0.00 | 44 | 1015.7 |
| 20260503192024 | 17 | 211 | 3.2 | 6.4 | 0.00 | 0.00 | 0.00 | 44 | 1015.3 |
| 20260503191503 | 17 | 212 | 3.2 | 6.4 | 0.00 | 0.00 | 0.00 | 44 | 1015.6 |
| 20260503191003 | 17 | 205 | 4.8 | 6.4 | 0.00 | 0.00 | 0.00 | 44 | 1015.6 |
| 20260503190524 | 17 | 203 | 4.8 | 6.4 | 0.00 | 0.00 | 0.00 | 44 | 1015.6 |
| 20260503190003 | 17 | 213 | 4.8 | 6.4 | 0.00 | 0.00 | 0.00 | 44 | 1015.5 |
| 20260503185503 | 18 | 221 | 4.8 | 9.7 | 0.00 | 0.00 | 0.00 | 44 | 1015.2 |
| 20260503185003 | 18 | 221 | 1.6 | 9.7 | 0.00 | 0.00 | 0.00 | 42 | 1015.1 |
| 20260503184503 | 18 | 0 | 0.0 | 0.0 | 0.00 | 0.00 | 0.00 | 41 | 1015.2 |
| 20260503184003 | 18 | 0 | 0.0 | 0.0 | 0.00 | 0.00 | 0.00 | 41 | 1015.2 |
| 20260503183503 | 18 | 0 | 0.0 | 0.0 | 0.00 | 0.00 | 0.00 | 41 | 1015.2 |
| 20260503183003 | 18 | 0 | 0.0 | 0.0 | 0.00 | 0.00 | 0.00 | 41 | 1015.1 |
| 20260503182503 | 18 | 0 | 0.0 | 0.0 | 0.00 | 0.00 | 0.00 | 41 | 1015.1 |
| 20260503182004 | 18 | 0 | 0.0 | 0.0 | 0.00 | 0.00 | 0.00 | 41 | 1015.2 |
| 20260503181524 | 19 | 0 | 0.0 | 0.0 | 0.00 | 0.00 | 0.00 | 40 | 1015.1 |
| 20260503181003 | 19 | 0 | 0.0 | 0.0 | 0.00 | 0.00 | 0.00 | 40 | 1015.0 |
| 20260503180503 | 19 | 0 | 0.0 | 0.0 | 0.00 | 0.00 | 0.00 | 40 | 1015.2 |
| 20260503180003 | 19 | 0 | 0.0 | 0.0 | 0.00 | 0.00 | 0.00 | 40 | 1015.1 |
| 20260503175503 | 20 | 0 | 0.0 | 0.0 | 0.00 | 0.00 | 0.00 | 40 | 1015.1 |
| 20260503175003 | 20 | 0 | 0.0 | 0.0 | 0.00 | 0.00 | 0.00 | 40 | 1015.2 |
| 20260503174539 | 20 | 0 | 0.0 | 0.0 | 0.00 | 0.00 | 0.00 | 40 | 1015.2 |
| 20260503174003 | 20 | 0 | 0.0 | 0.0 | 0.00 | 0.00 | 0.00 | 40 | 1015.0 |
| 20260503173504 | 20 | 0 | 0.0 | 0.0 | 0.00 | 0.00 | 0.00 | 40 | 1015.1 |
| 20260503173003 | 20 | 0 | 0.0 | 0.0 | 0.00 | 0.00 | 0.00 | 39 | 1015.1 |
| 20260503172503 | 20 | 0 | 0.0 | 0.0 | 0.00 | 0.00 | 0.00 | 38 | 1015.2 |
| 20260503172024 | 20 | 0 | 0.0 | 0.0 | 0.00 | 0.00 | 0.00 | 37 | 1015.3 |
| 20260503171503 | 20 | 270 | 0.0 | 1.6 | 0.00 | 0.00 | 0.00 | 37 | 1015.2 |
| 20260503171003 | 20 | 270 | 0.0 | 1.6 | 0.00 | 0.00 | 0.00 | 36 | 1015.2 |
| 20260503170503 | 20 | 0 | 0.0 | 0.0 | 0.00 | 0.00 | 0.00 | 35 | 1015.0 |
| 20260503151003 | 21 | 270 | 6.4 | 8.0 | 0.00 | 0.00 | 0.00 | 34 | 1015.9 |
| 20260503150503 | 21 | 259 | 6.4 | 8.0 | 0.00 | 0.00 | 0.00 | 35 | 1015.9 |
| 20260503131003 | 22 | 247 | 6.4 | 11.3 | 0.00 | 0.00 | 0.00 | 36 | 1017.0 |
| 20260503130503 | 22 | 243 | 6.4 | 11.3 | 0.00 | 0.00 | 0.00 | 36 | 1017.0 |
| 20260503110504 | 21 | 246 | 8.0 | 12.9 | 0.00 | 0.00 | 0.00 | 36 | 1017.3 |
| 20260503081504 | 19 | 151 | 4.8 | 9.7 | 0.00 | 0.00 | 0.00 | 49 | 1017.7 |
| 20260503081005 | 19 | 141 | 9.7 | 9.7 | 0.00 | 0.00 | 0.00 | 48 | 1017.7 |
| 20260503080504 | 19 | 127 | 8.0 | 9.7 | 0.00 | 0.00 | 0.00 | 48 | 1017.7 |
| 20260503072504 | 18 | 39 | 0.0 | 6.4 | 0.00 | 0.00 | 0.00 | 52 | 1017.7 |
| 20260503072004 | 18 | 67 | 0.0 | 1.6 | 0.00 | 0.00 | 0.00 | 53 | 1017.7 |
| 20260503071505 | 17 | 67 | 0.0 | 1.6 | 0.00 | 0.00 | 0.00 | 54 | 1017.6 |
| 20260503071004 | 17 | 0 | 0.0 | 0.0 | 0.00 | 0.00 | 0.00 | 56 | 1017.8 |
| 20260503070504 | 16 | 360 | 0.0 | 1.6 | 0.00 | 0.00 | 0.00 | 60 | 1017.6 |
| 20260503055004 | 13 | 21 | 1.6 | 8.0 | 0.00 | 0.00 | 0.00 | 61 | 1017.7 |
| 20260503054504 | 13 | 22 | 0.0 | 1.6 | 0.00 | 0.00 | 0.00 | 61 | 1017.7 |
| 20260503054004 | 13 | 0 | 0.0 | 0.0 | 0.00 | 0.00 | 0.00 | 61 | 1017.6 |
| 20260503053504 | 13 | 0 | 0.0 | 0.0 | 0.00 | 0.00 | 0.00 | 61 | 1017.6 |
| 20260503053025 | 13 | 13 | 0.0 | 1.6 | 0.00 | 0.00 | 0.00 | 61 | 1017.6 |
| 20260503052504 | 13 | 13 | 0.0 | 1.6 | 0.00 | 0.00 | 0.00 | 61 | 1017.6 |
| 20260503052004 | 13 | 0 | 0.0 | 0.0 | 0.00 | 0.00 | 0.00 | 60 | 1017.5 |
| 20260503051504 | 13 | 0 | 0.0 | 0.0 | 0.00 | 0.00 | 0.00 | 60 | 1017.6 |
| 20260503051005 | 13 | 0 | 0.0 | 0.0 | 0.00 | 0.00 | 0.00 | 61 | 1017.7 |
| 20260503050504 | 13 | 360 | 0.0 | 4.8 | 0.00 | 0.00 | 0.00 | 61 | 1017.6 |
| 20260503050005 | 13 | 5 | 1.6 | 4.8 | 0.00 | 0.00 | 0.00 | 61 | 1017.5 |
| 20260503045504 | 12 | 7 | 1.6 | 4.8 | 0.00 | 0.00 | 0.00 | 61 | 1017.5 |
| 20260503045004 | 12 | 16 | 1.6 | 4.8 | 0.00 | 0.00 | 0.00 | 61 | 1017.4 |
| 20260503044504 | 12 | 19 | 1.6 | 4.8 | 0.00 | 0.00 | 0.00 | 61 | 1017.3 |
| 20260503044004 | 12 | 4 | 0.0 | 3.2 | 0.00 | 0.00 | 0.00 | 61 | 1017.5 |
| 20260503043504 | 12 | 2 | 1.6 | 3.2 | 0.00 | 0.00 | 0.00 | 60 | 1017.6 |
| 20260503043025 | 12 | 7 | 1.6 | 3.2 | 0.00 | 0.00 | 0.00 | 60 | 1017.6 |
| 20260503042525 | 12 | 11 | 1.6 | 3.2 | 0.00 | 0.00 | 0.00 | 60 | 1017.5 |
| 20260503042004 | 12 | 16 | 1.6 | 3.2 | 0.00 | 0.00 | 0.00 | 60 | 1017.4 |
| 20260503041504 | 12 | 19 | 1.6 | 3.2 | 0.00 | 0.00 | 0.00 | 60 | 1017.5 |
| 20260503041004 | 13 | 20 | 3.2 | 3.2 | 0.00 | 0.00 | 0.00 | 60 | 1017.5 |
| 20260503040504 | 13 | 23 | 3.2 | 3.2 | 0.00 | 0.00 | 0.00 | 59 | 1017.7 |
| 20260503040025 | 13 | 23 | 1.6 | 3.2 | 0.00 | 0.00 | 0.00 | 59 | 1017.6 |
| 20260503035504 | 13 | 21 | 1.6 | 4.8 | 0.00 | 0.00 | 0.00 | 60 | 1017.5 |
| 20260503035004 | 13 | 31 | 3.2 | 6.4 | 0.00 | 0.00 | 0.00 | 60 | 1017.5 |
| 20260503034504 | 13 | 29 | 3.2 | 6.4 | 0.00 | 0.00 | 0.00 | 60 | 1017.4 |
| 20260503034004 | 13 | 21 | 4.8 | 9.7 | 0.00 | 0.00 | 0.00 | 60 | 1017.4 |
| 20260503033525 | 13 | 18 | 4.8 | 9.7 | 0.00 | 0.00 | 0.00 | 60 | 1017.4 |
| 20260503033004 | 13 | 19 | 4.8 | 11.3 | 0.00 | 0.00 | 0.00 | 60 | 1017.8 |
| 20260503032504 | 13 | 19 | 4.8 | 11.3 | 0.00 | 0.00 | 0.00 | 60 | 1017.5 |
| 20260503032004 | 12 | 11 | 4.8 | 11.3 | 0.00 | 0.00 | 0.00 | 60 | 1017.6 |
| 20260503031504 | 12 | 12 | 6.4 | 11.3 | 0.00 | 0.00 | 0.00 | 60 | 1017.6 |
| 20260503031004 | 12 | 12 | 3.2 | 6.4 | 0.00 | 0.00 | 0.00 | 60 | 1017.6 |
| 20260503030504 | 12 | 15 | 1.6 | 3.2 | 0.00 | 0.00 | 0.00 | 59 | 1017.7 |
| 20260503030004 | 12 | 43 | 1.6 | 3.2 | 0.00 | 0.00 | 0.00 | 58 | 1017.7 |
| 20260503025504 | 12 | 101 | 0.0 | 1.6 | 0.00 | 0.00 | 0.00 | 58 | 1017.7 |
| 20260503025004 | 13 | 13 | 1.6 | 6.4 | 0.00 | 0.00 | 0.00 | 58 | 1017.8 |
| 20260503024504 | 13 | 14 | 3.2 | 6.4 | 0.00 | 0.00 | 0.00 | 58 | 1017.9 |
| 20260503024004 | 13 | 18 | 3.2 | 6.4 | 0.00 | 0.00 | 0.00 | 58 | 1017.9 |
| 20260503023504 | 13 | 18 | 1.6 | 6.4 | 0.00 | 0.00 | 0.00 | 58 | 1017.9 |
| 20260503023004 | 13 | 12 | 3.2 | 4.8 | 0.00 | 0.00 | 0.00 | 57 | 1017.9 |
| 20260503022504 | 13 | 13 | 3.2 | 4.8 | 0.00 | 0.00 | 0.00 | 58 | 1017.7 |
| 20260503022004 | 13 | 18 | 3.2 | 6.4 | 0.00 | 0.00 | 0.00 | 58 | 1017.9 |
| 20260503021525 | 13 | 21 | 4.8 | 9.7 | 0.00 | 0.00 | 0.00 | 58 | 1017.8 |
| 20260503021004 | 13 | 22 | 6.4 | 9.7 | 0.00 | 0.00 | 0.00 | 58 | 1017.9 |
| 20260503020504 | 13 | 21 | 4.8 | 4.8 | 0.00 | 0.00 | 0.00 | 58 | 1018.0 |
| 20260503020004 | 13 | 19 | 4.8 | 6.4 | 0.00 | 0.00 | 0.00 | 58 | 1018.1 |
| 20260503015504 | 13 | 17 | 6.4 | 8.0 | 0.00 | 0.00 | 0.00 | 58 | 1018.1 |
| 20260503015025 | 13 | 14 | 6.4 | 8.0 | 0.00 | 0.00 | 0.00 | 58 | 1018.0 |
| 20260503014504 | 13 | 14 | 4.8 | 8.0 | 0.00 | 0.00 | 0.00 | 57 | 1018.1 |
| 20260503014040 | 13 | 18 | 4.8 | 6.4 | 0.00 | 0.00 | 0.00 | 57 | 1018.1 |
| 20260503013525 | 13 | 15 | 6.4 | 6.4 | 0.00 | 0.00 | 0.00 | 57 | 1017.9 |
| 20260503013004 | 13 | 14 | 6.4 | 11.3 | 0.00 | 0.00 | 0.00 | 57 | 1018.0 |
| 20260503012504 | 13 | 20 | 8.0 | 11.3 | 0.00 | 0.00 | 0.00 | 57 | 1018.1 |
| 20260503012025 | 13 | 20 | 6.4 | 11.3 | 0.00 | 0.00 | 0.00 | 57 | 1018.3 |
| 20260503011504 | 13 | 21 | 4.8 | 6.4 | 0.00 | 0.00 | 0.00 | 57 | 1017.9 |
| 20260503011004 | 13 | 22 | 3.2 | 6.4 | 0.00 | 0.00 | 0.00 | 57 | 1018.1 |
| 20260503010504 | 13 | 19 | 3.2 | 6.4 | 0.00 | 0.00 | 0.00 | 57 | 1018.4 |
| 20260503010004 | 13 | 14 | 3.2 | 6.4 | 0.00 | 0.00 | 0.00 | 57 | 1018.4 |
| 20260503005504 | 13 | 18 | 4.8 | 6.4 | 0.00 | 0.00 | 0.00 | 57 | 1018.4 |
| 20260503005004 | 13 | 19 | 4.8 | 6.4 | 0.00 | 0.00 | 0.00 | 57 | 1018.5 |
| 20260503004504 | 13 | 22 | 4.8 | 6.4 | 0.00 | 0.00 | 0.00 | 57 | 1018.5 |
| 20260503004004 | 13 | 24 | 4.8 | 6.4 | 0.00 | 0.00 | 0.00 | 57 | 1018.6 |
| 20260503003516 | 13 | 19 | 3.2 | 4.8 | 0.00 | 0.00 | 0.00 | 58 | 1018.7 |
| 20260503003025 | 13 | 16 | 4.8 | 6.4 | 0.00 | 0.00 | 0.00 | 58 | 1018.7 |
| 20260503002525 | 13 | 12 | 4.8 | 6.4 | 0.00 | 0.00 | 0.00 | 58 | 1018.8 |
| 20260503002004 | 13 | 16 | 4.8 | 8.0 | 0.00 | 0.00 | 0.00 | 57 | 1018.8 |
| 20260503001504 | 13 | 17 | 4.8 | 8.0 | 0.00 | 0.00 | 0.00 | 57 | 1018.7 |
| 20260503001004 | 13 | 14 | 1.6 | 6.4 | 0.00 | 0.00 | 0.00 | 57 | 1018.9 |
| 20260503000504 | 13 | 0 | 0.0 | 0.0 | 0.00 | 0.00 | 0.00 | 56 | 1019.0 |
| 20260503000004 | 13 | 0 | 0.0 | 0.0 | 0.00 | 0.00 | 0.00 | 56 | 1018.9 |
| 20260502235504 | 13 | 0 | 0.0 | 0.0 | 0.00 | 0.00 | 0.00 | 55 | 1018.9 |
| 20260502235004 | 13 | 0 | 0.0 | 0.0 | 0.00 | 0.00 | 0.00 | 54 | 1019.0 |
| 20260502234504 | 13 | 0 | 0.0 | 0.0 | 0.00 | 0.00 | 0.00 | 54 | 1019.0 |
| 20260502234004 | 13 | 0 | 0.0 | 0.0 | 0.00 | 0.00 | 0.00 | 54 | 1019.1 |
| 20260502233504 | 13 | 0 | 0.0 | 0.0 | 0.00 | 0.00 | 0.00 | 53 | 1019.1 |
| 20260502233004 | 13 | 0 | 0.0 | 0.0 | 0.00 | 0.00 | 0.00 | 53 | 1019.1 |
| 20260502232504 | 14 | 360 | 0.0 | 3.2 | 0.00 | 0.00 | 0.00 | 53 | 1019.2 |